Regional Weather Roundup
Issued by NWS Upton, NY

Current Version | Previous Version | Graphics & Text | Print | Product List | Glossary Off
Versions: 1 2 3 4 5 6 7 8 9 10 11 12 13 14 15 16 17 18 19 20 21 22 23 24 25 26 27

000
ASUS41 KOKX 251904
RWROKX

REGIONAL WEATHER ROUNDUP
NATIONAL WEATHER SERVICE NEW YORK NY
300 PM EDT WED MAY 25 2016

NOTE: "FAIR" INDICATES FEW OR NO CLOUDS BELOW 12,000 FEET WITH NO
SIGNIFICANT WEATHER AND/OR OBSTRUCTIONS TO VISIBILITY.

NYZ071-072-176-178-NJZ106-104-252000-
NEW YORK CITY METRO AREA


CITY           SKY/WX    TMP DP  RH WIND       PRES   REMARKS
CENTRAL PARK   SUNNY     87  41  19 VRB3      30.06F
LAGUARDIA APRT MOSUNNY   89  46  22 W13       30.03S
KENNEDY INTL   MOSUNNY   86  46  24 SW17      30.05S
NEWARK/LIBERTY MOSUNNY   90  43  19 SW9       30.04S
BRNX BOT. GARD   N/A     86  41  20 W7        30.05R
TETERBORO      SUNNY     89  39  17 W8G18     30.02F
$$

NYZ177-179-078>081-252000-
LONG ISLAND NEW YORK

CITY           SKY/WX    TMP DP  RH WIND       PRES   REMARKS
FARMINGDALE    SUNNY     87  47  24 SW8       30.04S
ISLIP          MOSUNNY   85  52  32 W10       30.04R
SHIRLEY        SUNNY     84  52  33 S13       30.04S
RIVERHEAD        N/A     86  55  35 N3        30.02S
WESTHAMPTON    NOT AVBL
EAST HAMPTON   FAIR      82  56  40 SW8       30.02S
MONTAUK POINT    N/A     81  52  36 VRB7      30.03S
$$

NYZ052-065-067-252000-
HUDSON VALLEY

CITY           SKY/WX    TMP DP  RH WIND       PRES   REMARKS
WHITE PLAINS   SUNNY     85  39  19 W8        30.04S
NEWBURGH       SUNNY     86  46  25 W17G23    30.03F
MONTGOMERY     SUNNY     88  45  22 SW13      30.01F
POUGHKEEPSIE   SUNNY     89  45  21 SW10G18   29.99F
ALBANY         PTSUNNY   86  50  28 W8G24     29.98F
$$

NJZ001-105-106-008-010-013-015-019>022-104-252000-
NEW JERSEY

CITY           SKY/WX    TMP DP  RH WIND       PRES   REMARKS
NEWARK/LIBERTY MOSUNNY   90  43  19 SW9       30.04S
TETERBORO      SUNNY     89  39  17 W8G18     30.02F
CALDWELL       SUNNY     88  42  20 W13G18    30.04F
MORRISTOWN     MOSUNNY   86  43  22 MISG      30.05F
SOMERVILLE     SUNNY     86  44  23 SW8       30.04F
SUSSEX         SUNNY     87  37  17 MISG      30.04F
ANDOVER          N/A     86  41  20 W9        30.06F
TRENTON        SUNNY     86  45  23 W8        30.07F
MILLVILLE      SUNNY     86  48  26 W12G22    30.10F
ATLANTIC CITY  MOSUNNY   87  38  17 W13       30.08F
WRIGHTSTOWN    NOT AVBL
TOMS RIVER     SUNNY     90  43  19 W8G17     30.07S
BELMAR         SUNNY     87  47  24 W12       30.08S
$$

PAZ047>061-062-071-252000-
EASTERN PENNSYLVANIA

CITY           SKY/WX    TMP DP  RH WIND       PRES   REMARKS
PHILADELPHIA   PTSUNNY   86  41  20 W16G22    30.08F
ALLENTOWN      SUNNY     86  46  24 VRB5      30.07F
SCRANTON       SUNNY     85  48  27 SW9G16    30.08F
$$

CTZ002-004>006-009-010-012-RIZ004-006-007-MAZ004-011-015-252000-
SOUTHERN NEW ENGLAND
 IN CT

CITY           SKY/WX    TMP DP  RH WIND       PRES   REMARKS
BRADLEY INTL   MOSUNNY   89  45  21 W14G20    29.97F
HARTFORD       SUNNY     90  45  21 W12       29.97F
DANBURY        SUNNY     85  43  22 W14       30.04F
WTRBRY/OXFORD  SUNNY     82  45  26 NW8       30.06S
BRIDGEPORT     SUNNY     80  52  37 SW14      30.02S
MERIDEN        SUNNY     87  44  22 W8        30.00F
NEW HAVEN      SUNNY     76  53  44 SW13G18   30.01F
CHESTER          N/A     84  54  34 SW9G16    30.02S
GROTON         SUNNY     73  57  57 SW13      30.00S
WILLIMANTIC    SUNNY     89  42  19 NW9       29.98F

 IN RI

CITY           SKY/WX    TMP DP  RH WIND       PRES   REMARKS
PROVIDENCE     MOSUNNY   81  56  42 SE9       29.97F
BLOCK ISLAND   SUNNY     73  55  53 SW15      30.02S
WESTERLY       SUNNY     75  51  43 SW12G18   30.01F

 IN MA

CITY           SKY/WX    TMP DP  RH WIND       PRES   REMARKS
BOSTON         MOSUNNY   70  58  65 E7        29.94F
WORCESTER      SUNNY     83  40  21 W13       30.00S
WESTFIELD      SUNNY     86  43  22 NW10G22   29.98F
PROVINCETOWN   SUNNY     71  58  63 S13G20    29.98S
NANTUCKET      SUNNY     62  54  74 S14       30.02S
$$

ANZ330-335-338-340-345-350-353-355-252000-
COASTAL MARINE OBSERVATIONS


STATION/POSITION TIME  SKY/WX   TEMP    WIND        PRES    VSBY  WAVE
                                AIR SEA DIR/SP/G                  HT/PER
                 (UTC)          (F)     (DEG/KT/KT) (MB)    (MI)  (FT/S)
NY HARB ENTRANCE 1750            67 64  200/  4/  6 1017.7          2/ 8
20S FIRE ISLAND  1750            60 57  210/  8/ 10 1017.8          3/ 6
GREAT SOUTH BAY  1800            69 65  230/ 12/ 14   N/A
23 SSW MONTAUK P 1750            59 55  240/ 12/ 16 1016.6          3/ 8
15 E BARNEGAT LI 1822               58                N/A           3/11
HUDSON CANYON    1750            58 55              1019.1          3/ 8
KINGS POINT      1800            80 58              1017.0
EXECUTION ROCKS  NOT AVBL
CENTRAL LI SOUND 1800            64     240/  6/ 10   N/A           1
EASTERN LI SOUND 1800            59 53  260/ 12/ 16   N/A
ROBBINS REEF     1800            83     240/ 15/ 16 1016.7
$$


>>>>>>>>>>>>>>>>>>>>>>>>>>>> KEY <<<<<<<<<<<<<<<<<<<<<<<<<<<
>                                                          <
>     SKY/WX - SKY CONDITION/PRESENT WEATHER               <
>     TMP    - TEMPERATURE IN FAHRENHEIT                   <
>     DP     - DEWPOINT IN FAHRENHEIT                      <
>     RH     - RELATIVE HUMIDITY IN PERCENT                <
>     WIND   - DIRECTION AND SPEED IN MPH                  <
>     PRES   - MEAN SEA LEVEL PRESSURE IN INCHES OF HG     <
>     WCI    - WIND CHILL INDEX                            <
>     VSB    - VISIBILITY IN MILES                         <
>     HX     - HEAT INDEX                                  <
>     TC     - TEMPERATURE IN CELSIUS                      <
>     VRB    - VARIABLE WIND DIRECTION                     <
>                                                          <
>>>>>>>>>>>>>>>>>>>>>>>>>>>> KEY <<<<<<<<<<<<<<<<<<<<<<<<<<<






USA.gov is the U.S. government's official web portal to all federal, state and local government web resources and services.